Location: Newark
(35.6799°N, 139.7636°E)
Time: 16:31:17
(UTC+00:00)

Explorer 7 - Pass Details

Date: 11 December 2019
Orbit: 485 x 679 km, 50.3° (Epoch: 24 January)

Event Time Altitude Azimuth Distance (km) Brightness Sun altitude
Rises 06:52:39 0° 258° (WSW) 2,971 12.1 5.3°
Reaches altitude 10° 06:55:11 10° 269° (W) 2,082 10.9 4.9°
Maximum altitude 06:59:30 32° 332° (NNW) 1,160 8.5 4.1°
Drops below altitude 10° 07:03:55 10° 35° (NE) 2,118 9.2 3.4°
Sets 07:06:31 0° 46° (NE) 3,031 9.9 2.9°
